www.pogodaiklimat.ru

Погода и климат >> Архив погоды >> Аргентина >> Игуасу


ПОГОДА в Игуасу

  • Прогноз погоды в Игуасу
  • Монитор погоды в Игуасу

АРХИВ ПОГОДЫ в Игуасу

Время (UTC), дата Ветер
(напр.,м/с)
 
Видим.   Явления Облачность Т
(С)
Тd
(С)
f
(%)
Тe
(С)
Тes
(С)
Комфортность P
(гПа)
Po
(гПа)
Тmin
(С)
Tmax
(С)
R
(мм)
R24
(мм)
S
(см)
06 9.01 СВ 2 20 км 8/0
[Ac As Cs]
+23.7 +22.5 93 +31 +31 очень
душно
1009.9 979.4
09 9.01 СВ 3 20 км 9/0
[Ac As Cs]
+23.8 +22.5 92 +31 +31 очень
душно
1010.0 979.4
12 9.01 СВ 3 20 км 9/0
[Ac As Cs]
+27.3 +22.8 76 +36 +40 очень
душно
1011.6 981.0 +23.0 +27.3
15 9.01 С 5 20 км 9/4 900 м
[Cu hum Ac As Cs]
+32.0 +23.8 62 +43 +48 опасность
перегрева
1010.8 980.5
18 9.01 С 4 20 км гроза без осадков 9/6 900 м
[Cb calv Ac As Cs]
+32.8 +23.2 57 +43 +46 опасность
перегрева
1008.2 978.0
21 9.01 С 3 20 км {гроза} 9/4 900 м
[Sc Ac As Cs]
+31.4 +23.6 63 +42 +43 опасность
перегрева
1006.8 976.5
00 10.01 СВ 2 20 км {гроза} 9/3 900 м
[Sc Ac As]
+26.9 +21.9 74 +35 +35 очень
душно
1008.4 978.0 +26.9 +33.4
03 10.01 СВ 2 20 км 9/3 750 м
[Sc Ac As]
+25.0 +22.4 86 +33 +33 очень
душно
1009.2 979.0
06 10.01 СВ 3 20 км 6/0
[Ac As]
+24.0 +22.5 91 +31 +31 очень
душно
1007.4 977.2
09 10.01 СВ 3 20 км 6/0
[Cs]
+23.4 +21.9 91 +32 +32 очень
душно
1008.7 978.4
12 10.01 СВ 3 20 км 8/0
[Cs]
+26.8 +23.0 80 +36 +43 очень
душно
1011.3 980.8 +23.0 +26.9
15 10.01 С 3 20 км 8/4 900 м
[Cu med, cong Cs]
+31.2 +22.4 60 +41 +51 опасность
перегрева
1011.2 980.9
18 10.01 С 8 20 км гроза без осадков 9/6 750 м
[Cb cap Ac As]
+26.2 +19.8 68 +32 +33 очень
душно
1010.0 979.4
21 10.01 В 1 200 м {гроза} 9/4 750 м
[Cu med, cong Ac As]
+23.8 +20.8 83 +30 +30 очень
душно
1010.0 979.2
00 11.01 В 3 20 км зарница {гроза} 6/1 1500 м
[Cb cap Ac As]
+23.5 +21.2 87 +30 +30 очень
душно
1013.2 982.5 +22.7 +32.8 0.0
03 11.01 В 3 20 км 5/0
[Ac As]
+22.6 +21.1 91 +30 +30 очень
душно
1014.0 983.4
06 11.01 В 1 20 км 4/0
[Cs]
+21.9 +20.5 92 +28 +28 душно 1012.6 981.8
09 11.01 СВ 2 20 км 9/0
[Ac As Cs]
+21.4 +19.7 90 +26 +26 душно 1014.0 983.0
12 11.01 В 2 20 км 9/0
[Ac As Cs]
+24.0 +20.8 82 +30 +35 очень
душно
1015.3 984.4 +21.0 +24.0 0.0
15 11.01 Ю 2 20 км 6/0
[Ac cast Cs]
+30.2 +20.7 57 +37 +53 опасность
солнечного
удара
1014.6 984.0
18 11.01 2 20 км 5/5 900 м
[Cu med, cong]
+32.8 +21.9 53 +41 +50 опасность
перегрева
1012.4 982.0
21 11.01 Ю 3 15 км гроза без осадков 9/3 1200 м
[Cb cap As op]
+26.4 +22.4 79 +35 +35 очень
душно
1012.1 981.3
00 12.01 ЮВ 6 20 км {гроза} 8/4 1050 м
[Cu med, cong Ac As]
+23.4 +20.7 85 +31 +31 очень
душно
1014.2 983.3 +23.2 +34.0
03 12.01 Ю 2 20 км 5/0
[Ac As]
+22.8 +21.1 90 +30 +30 очень
душно
1014.1 983.4
06 12.01 В 3 20 км ясно +21.7 +20.6 93 +27 +27 душно 1012.3 981.8
09 12.01 СВ 4 20 км 6/0
[Ac cast Ci fib]
+21.3 +20.5 95 +27 +27 душно 1013.3 982.5
12 12.01 СВ 4 20 км 8/0
[Ac As Ci fib]
+26.3 +21.9 77 +34 +37 очень
душно
1014.8 984.0 +21.0 +26.3
15 12.01 С 3 20 км 8/0
[Ac As Cs]
+30.7 +21.3 57 +38 +46 очень
душно
1014.1 983.4
18 12.01 ЮЗ 3 20 км зарница 9/1 1500 м
[Cb calv Ac As]
+32.9 +21.4 51 +41 +46 опасность
перегрева
1012.2 981.7
21 12.01 СВ 3 20 км {гроза} 6/1 1350 м
[Cu med, cong Ac As]
+28.3 +21.7 67 +36 +37 очень
душно
1010.2 979.6
00 13.01 СВ 4 20 км {гроза} 8/1 900 м
[Sc Ac As]
+24.8 +22.1 85 +32 +32 очень
душно
1013.0 982.2 +24.8 +33.0 0.0
03 13.01 СВ 2 20 км 6/0
[Ac As]
+24.0 +22.4 91 +31 +31 очень
душно
1013.4 982.9
06 13.01 СВ 2 20 км 6/0
[Cs]
+23.4 +22.2 93 +32 +32 очень
душно
1011.6 981.2
09 13.01 СВ 2 20 км 6/0
[Cs]
+22.4 +21.2 93 +29 +29 очень
душно
1012.6 981.8
12 13.01 С 3 20 км 5/0
[Ac cast Ci fib]
+27.5 +22.1 72 +36 +42 очень
душно
1013.9 983.3 +22.0 +27.8 0.0
15 13.01 С 6 20 км 8/4 750 м
[Cu hum Ac cast Cs]
+32.7 +22.1 54 +42 +45 опасность
перегрева
1013.5 983.0
18 13.01 С 2 20 км в посл. час гроза {дождь} 8/5 1050 м
[Cu med, cong Ac As]
+31.7 +22.9 60 +42 +47 опасность
перегрева
1011.6 981.2 0.0
21 13.01 С 4 15 км осадки на расстоянии 8/4 900 м
[Cu med, cong Ac As]
+29.9 +22.7 65 +39 +40 очень
душно
1010.7 980.4
00 14.01 СВ 3 15 км гроза без осадков 9/5 900 м
[Cb cap Ac As]
+25.8 +22.7 83 +34 +34 очень
душно
1011.8 981.3 +25.6 +33.4
03 14.01 СВ 2 20 км {гроза} 9/3 1200 м
[Cu med, cong Ac As]
+24.3 +22.7 91 +32 +32 очень
душно
1013.1 982.6
06 14.01 В 2 20 км {гроза} 9/3 1200 м
[Cu med, cong Ac As]
+23.0 +21.5 91 +31 +31 очень
душно
1012.9 982.4
09 14.01 СВ 2 20 км 10/0
[Ac As Cs]
+22.7 +21.0 90 +30 +30 очень
душно
1012.8 982.2
12 14.01 СВ 3 20 км 8/0
[Ac trans Cs]
+27.7 +23.7 79 +38 +43 очень
душно
1013.4 982.9 +22.0 +27.7 0.0
15 14.01 СЗ 6 20 км 8/3 900 м
[Cu hum Ac trans Cs]
+32.4 +24.7 64 +45 +50 опасность
перегрева
1013.1 982.6
18 14.01 З 15 3000 м гроза, ливневой дождь 10/6 750 м
[Cb cap As op]
+24.4 +22.8 91 +32 +32 очень
душно
1012.1 981.3 1
21 14.01 Ю 4 10 км {гроза} 10/4 750 м
[Cu hum Ac As]
+24.4 +22.6 90 +32 +32 очень
душно
1010.7 979.8
00 15.01 СВ 4 6000 м гроза, ливневой дождь 10/5 750 м
[Cb cap As op]
+23.2 +22.0 93 +32 +32 очень
душно
1013.1 982.4 +23.2 +33.5 6
03 15.01 СВ 3 20 км {гроза} 6/0
[Ac As]
+23.4 +21.8 91 +32 +32 очень
душно
1013.0 982.6
06 15.01 СВ 2 20 км {гроза} ясно +23.0 +22.3 96 +31 +31 очень
душно
1012.6 981.8
09 15.01 СВ 2 20 км ясно +23.2 +21.7 91 +31 +31 очень
душно
1012.3 981.4
12 15.01 СВ 3 20 км 5/0
[Ac cast Cs]
+26.3 +22.9 82 +35 +42 очень
душно
1013.5 982.8 +21.7 +26.5 6
15 15.01 С 5 20 км 6/1 750 м
[Cu hum Cs]
+31.8 +23.4 61 +43 +51 опасность
перегрева
1012.0 981.6
18 15.01 С 4 20 км 9/5 900 м
[Cu med, cong Ac As Cs]
+33.2 +22.9 55 +43 +46 опасность
перегрева
1010.0 979.7
21 15.01 Ю 2 9000 м слаб. ливневой дождь, в посл. час гроза 10/3 750 м
[Sc Ac As]
+23.8 +22.9 95 +32 +32 очень
душно
1010.2 979.4
00 16.01 штиль 0 20 км {гроза, ливн. осадки} 10/1 600 м
[Sc Ac As]
+24.0 +23.7 98 +33 +33 очень
душно
1011.4 980.8 +23.3 +34.8 9

 

Местоположение метеостанции Игуасу (Аргентина): широта -25.73 долгота -54.46 высота над уровнем моря 270 м.

В архиве по умолчанию представлена погода в Игуасу за последнюю неделю. Архивные данные за месяц целиком и за предыдущие месяцы, начиная с января 2011 года, Вы можете получить, выбрав интересующий диапазон дат из раскрывающегося списка и нажав кнопку "Ввод!".


*Определитесь, кто Вы:
робот инопланетянин человек

Внимание! Время в таблицах - всемирное. Для получения местного времени необходимо прибавить поправку, которая равна -3 ч.

Смотрите также архив погоды в соседних городах и на ближайших метеорологических станциях:

Погода в Фос-ду-Игуасу (Парана, Бразилия) (15 км)
Погода в Фос-ду-Игуасу (Парана, Бразилия) (27 км)
Погода в Аэропорту Гуарани (Парагвай) (50 км)
Погода в Планарту (Парана, Бразилия) (71 км)
Погода в Дионисио Серкейра (Парана, Бразилия) (103 км)
Погода в Дойс-Визиньюсе (Парана, Бразилия) (136 км)
Погода в Марешал-Кандиду-Рондоне (Парана, Бразилия) (141 км)
Погода в Сан-Мигель-ду-Осте (Санта-Катарина, Бразилия) (151 км)
Погода в Капитан Меса (Парагвай) (152 км)
Погода в Ново-Оризонти (Санта-Катарина, Бразилия) (177 км)

Пояснения к столбцам:

Ветер - указаны скорость ветра в м/с - средняя за 10 мин, порывы в срок и между сроками (в фигурных скобках) и направление, откуда дует ветер: С - северный, СВ - северо-восточный, В - восточный, ЮВ - юго-восточный, Ю - южный, ЮЗ - юго-западный, З - западный, СЗ - северо-западный.
Видимость - горизонтальная дальность видимости в метрах или километрах. При видимости от 1 до 10 км при отсутствии осадков обычно наблюдается дымка, при ухудшении видимости до 1 км и менее - туман. В сухую погоду видимость может ухудшаться дымом, пылью или мглою.
Явления - указаны атмосферные явления, наблюдавшиеся в срок или в последний час перед сроком; фигурными скобками обозначены явления, наблюдавшиеся между сроками (за 1-3 часа до срока); квадратными скобками обозначены град или гололедные отложения с указанием их диаметра в мм.
Облачность - указаны через наклонную черту общая и нижняя облачность в баллах и высота нижней границы облаков в метрах; квадратными скобками обозначены формы облаков: Ci - перистые, Cs - перисто-слоистые, Cc - перисто-кучевые, Ac - высококучевые, As - высокослоистые, Sc - слоисто-кучевые, Ns - слоисто-дождевые, Cu - кучевые, Cb - кучево-дождевые. Подробнее классификацию облаков см. в Атласе облаков (PDF).
T - Температура воздуха - температура, измеренная на высоте 2 м над землей.
Td - Температура точки росы - температура, при понижении до которой содержащийся в воздухе водяной пар достигнет насыщения.
f - Относительная влажность воздуха - влажноcть воздуха, измеренная на высоте 2 м над землей.
Te - Эффективная температура - температура, которую ощущает одетый по сезону человек в тени. Характеристика душности погоды. При расчете учитывается влияние влажности воздуха и скорости ветра на теплоощущения человека.
Tes - Эффективная температура на солнце - температура, которую ощущает человек, с поправкой на солнечный нагрев. Характеристика знойности погоды. Зависит от высоты солнца над горизонтом, облачности и скорости ветра. Ночью, в пасмурную погоду, а также при ветре 12 м/с и более поправка равна нулю.
P - Атмосферное давление - приведенное к уровню моря атмосферное давление.
Po - Атмосферное давление - измеренное на уровне метеостанции атмосферное давление.
Tmin - Минимальная температура - минимум температуры воздуха на высоте 2 м над землей.
Tmax - Максимальная температура - максимум температуры воздуха на высоте 2 м над землей.
R - Количество осадков - Количество выпавших осадков за период времени, мм. При наведении курсора мыши на число - период времени, за который выпало указанное количество осадков.
R24 - Количество осадков - Количество выпавших осадков за 24 часа, мм.
S - Снежный покров - Высота снежного покрова, см. При наведении курсора мыши на число - состояние снежного покрова и степень покрытия местности в баллах.